Regional Weather Roundup
Issued by NWS Sterling, VA

Home | Current Version | Previous Version | Graphics & Text | Print | Product List | Glossary On
Versions: 1 2 3 4 5 6 7 8 9 10 11 12 13 14 15 16 17 18 19 20 21 22 23 24 25 26 27 28 29 30 31 32 33 34 35 36 37 38 39 40 41 42 43 44 45 46 47 48 49 50
000
ASUS41 KLWX 240711
RWRLWX

REGIONAL WEATHER ROUNDUP
NATIONAL WEATHER SERVICE BALTIMORE MD/WASHINGTON DC
200 AM EST FRI FEB 24 2017

Note: "FAIR" indicates few or no clouds below 12,000 feet
with no significant weather and/or obstructions to visibility.
 TC=TEMPERATURE CELSIUS

 * =Non NWS site. Station does not report precipitation (e.g. rain,
    snow, etc.), thunder, or fog.

DCZ001-MDZ009-015-VAZ040>042-051-053>054-240800-
WASHINGTON METRO

CITY           SKY/WX    TMP DP  RH WIND       PRES   REMARKS
WASHINGTON NAT PTCLDY    58  52  80 S9        29.90S
DULLES         PTCLDY    59  49  69 S6        29.89R
ANDREWS AFB    CLEAR     58  52  79 S10       29.90S
FT BELVOIR     CLEAR     50  46  87 CALM      29.90S
QUANTICO       CLEAR     55  51  86 SW8       29.91F
COLLEGE PARK*  CLEAR     59  50  72 CALM      29.90S
LEESBURG*      CLOUDY    59  54  82 MISG      29.90R
MANASSAS*      PTCLDY    48  47  96 CALM      29.90S
GAITHERSBURG*  CLOUDY    57  46  67 S6        29.93S

$$

MDZ006>007-011-014-240800-
BALTIMORE METRO

CITY           SKY/WX    TMP DP  RH WIND       PRES   REMARKS
BWI AIRPORT    PTCLDY    52  50  93 CALM      29.90S
MD SCIENCE CTR   N/A     56  48  74 MISG      29.91S
MARTIN STATE   CLEAR     52  52 100 CALM      29.92S
ANNAPOLIS      CLEAR     51  48  89 SE6       29.91S
FORT MEADE*    CLEAR     46  45  93 S3        29.93S

$$

MDZ012-015-019>023-240800-
MARYLAND EASTERN SHORE

CITY           SKY/WX    TMP DP  RH WIND       PRES   REMARKS
OCEAN CITY     CLEAR     53  50  89 S5        29.96R
SALISBURY      CLEAR     53  52  96 CALM      29.95R
BAY BRIDGE AP* CLEAR     55  52  88 S8        29.91F
CAMBRIDGE*     CLEAR     52  50  93 S5        29.93F
EASTON*        CLEAR     58  52  81 S6        29.96F

$$

MDZ017>025-240800-
SOUTHERN MARYLAND

CITY           SKY/WX    TMP DP  RH WIND       PRES   REMARKS
PATUXENT RIVER CLEAR     58  54  86 SW5       29.92S
ST INIGOES     CLEAR     56  52  86 S5        29.92S
LEONARDTOWN*   CLEAR     59  52  77 S3        29.93F

$$

MDZ003>005-240800-
NORTH CENTRAL MARYLAND

CITY           SKY/WX    TMP DP  RH WIND       PRES   REMARKS
FREDERICK*     PTCLDY    54  50  87 CALM      29.91R
HAGERSTOWN APT MOCLDY    63  52  67 S10       29.86R
WESTMINSTER*   CLEAR     61  52  72 S5        29.89

$$

MDZ501>502-240800-
WESTERN MARYLAND

CITY           SKY/WX    TMP DP  RH WIND       PRES   REMARKS
OAKLAND*       CLOUDY    52  46  82 S8        29.89S
CUMBERLAND*    PTCLDY    55  52  88 CALM      29.90R

$$

VAZ025>031-240800-
SHENANDOAH VALLEY

CITY           SKY/WX    TMP DP  RH WIND       PRES   REMARKS
WINCHESTER*    PTCLDY    55  48  76 S3        29.87S
FRONT ROYAL*   CLEAR     54  50  87 CALM      29.87S
LURAY*         CLEAR     50  50 100 CALM      29.88F
NEW MARKET*    PTCLDY    46  44  91 CALM      29.88F
STAUNTON*      CLEAR     46  44  93 CALM      29.92F
WAYNESBORO*    CLEAR     52  48  86 CALM      29.91S

$$

WVZ021-048>050-054>055-240800-
EASTERN WEST VIRGINIA PANHANDLE

CITY           SKY/WX    TMP DP  RH WIND       PRES   REMARKS
MARTINSBURG    PTCLDY    59  50  72 S6        29.85S
PETERSBURG*    MOCLDY    49  47  93 CALM      29.87S

$$

VAZ036>039-050-240800-
CENTRAL FOOTHILLS

CITY           SKY/WX    TMP DP  RH WIND       PRES   REMARKS
CHARLOTTESVILL CLEAR     58  52  80 S7        29.89S
CULPEPER*      CLEAR     50  49  97 CALM      29.91R
ORANGE*        CLEAR     46  45  93 CALM      29.92R
GORDONSVILLE*  CLEAR     47  46  99 CALM      29.90S
WARRENTON*     CLEAR     48  44  86 CALM      29.89S

$$

VAZ055>057-240800-
NORTH AND CENTRAL PIEDMONT

CITY           SKY/WX    TMP DP  RH WIND       PRES   REMARKS
FREDERICKSBRG* CLEAR     59  54  84 S6        29.90S
STAFFORD*      CLEAR     56  53  88 CALM      29.95R

$$

NCZ024-NYZ072-PAZ021-071-VAZ022-071-240800-
OTHER REGIONAL OBSERVATIONS

CITY           SKY/WX    TMP DP  RH WIND       PRES   REMARKS
NEW YORK CITY  PTCLDY    60  51  72 VRB5      29.93R
PHILADELPHIA   CLEAR     55  50  83 S7        29.93R
PITTSBURGH     CLOUDY    57  53  86 S5        29.81S
ROANOKE        CLEAR     53  50  89 CALM      29.93S
RICHMOND       CLEAR     56  54  93 S6        29.92F
RALEIGH        CLEAR     54  50  86 CALM      29.93S

$$

ANZ530>537-240800-
MARINE OBSERVATIONS

STATION/POSITION TIME  TEMP    WIND        PRES
                       AIR SEA DIR/SP/G
                 (UTC) (F)     (DEG/KT/KT) (MB)
THOMAS PT LIGHT  0700   51 43  170/ 15/ 15   N/A
BALT KEY BRIDGE  0648          130/  5/  6 1012.6F
COVE POINT       0648          190/  9/ 10 1013.9F
LEWISETTA        0648      44  220/  6/  7 1013.0F
SOLOMONS ISLAND  0648      45  140/  3/  4   N/A
PINEY POINT      0648          140/  4/  4   N/A

$$




USA.gov is the U.S. government's official web portal to all federal, state and local government web resources and services.